Tracking 21992 objects as of 27-Nov-2020
HD Live streaming from Space Station
objects crossing your sky now

ARIANE 42L R/B

Track ARIANE 42L R/B now!
10-day predictions


NORAD ID: 25586
Int'l Code: 1998-075B
Perigee: 157.2 km
Apogee: 8,477.1 km
Inclination: 7.5 °
Period: 183.3 minutes
Semi major axis: 10688 km
RCS: 21.3079 m2 (large)
Launch date: December 22, 1998
Source: France (FR)
Launch site: FRENCH GUIANA (FRGUI)

Note: This is a ROCKET BODY
aabbcc
Your satellite tracking list
Your tracking list is empty




NASA's NSSDC Master Catalog

Two Line Element Set (TLE):
1 25586U 98075B   20332.03032854  .00900375 -15654-5  13714-2 0  9999
2 25586   7.5269 316.5193 3892129 296.3246  29.0631  7.85685107292787
Source of the keplerian elements: AFSPC